This is the latest recevied weather packets stored in our database for station/object VE8SKI. If no packets are shown the sender has not sent any weather packets the latest 10 day(s).
| Time | Temp. | Humidity | Pressure | Rain* | Wind** | Luminosity | Snow |
|---|---|---|---|---|---|---|---|
| 1778048916 | 2.78° C | 62% | 1017.9 hPa | 0 mm | 0 m/s | - | - |
| 1778048613 | 2.78° C | 62% | 1017.9 hPa | 0 mm | 0 m/s | - | - |
| 1778048314 | 2.78° C | 62% | 1017.9 hPa | 0 mm | 0 m/s | - | - |
| 1778048014 | 2.78° C | 62% | 1017.9 hPa | 0 mm | 2.68 m/s, 187° | - | - |
| 1778047715 | 2.78° C | 62% | 1018 hPa | 0 mm | 3.13 m/s, 193° | - | - |
| 1778047415 | 3.33° C | 63% | 1018 hPa | 0 mm | 1.79 m/s, 197° | - | - |
| 1778047115 | 2.78° C | 63% | 1018 hPa | 0 mm | 2.68 m/s, 246° | - | - |
| 1778046813 | 3.33° C | 63% | 1018 hPa | 0 mm | 1.79 m/s, 194° | - | - |
| 1778046514 | 3.33° C | 63% | 1018 hPa | 0 mm | 1.79 m/s, 301° | - | - |
| 1778046214 | 3.33° C | 63% | 1018 hPa | 0 mm | 2.68 m/s, 152° | - | - |
| 1778045914 | 3.33° C | 63% | 1018 hPa | 0 mm | 2.24 m/s, 233° | - | - |
| 1778045615 | 3.33° C | 62% | 1017.9 hPa | 0 mm | 2.68 m/s, 231° | - | - |
| 1778045315 | 3.33° C | 63% | 1018 hPa | 0 mm | 1.79 m/s, 139° | - | - |
| 1778045013 | 3.33° C | 62% | 1018 hPa | 0 mm | 2.24 m/s, 218° | - | - |
| 1778044714 | 3.33° C | 62% | 1018 hPa | 0 mm | 2.68 m/s, 127° | - | - |
| 1778044414 | 3.33° C | 61% | 1018 hPa | 0 mm | 3.13 m/s, 205° | - | - |
| 1778044114 | 3.33° C | 62% | 1018 hPa | 0 mm | 1.79 m/s, 214° | - | - |
| 1778043815 | 3.89° C | 61% | 1018 hPa | 0 mm | 3.13 m/s, 271° | - | - |
| 1778043515 | 3.89° C | 61% | 1018 hPa | 0 mm | 2.68 m/s, 204° | - | - |
| 1778043213 | 3.89° C | 60% | 1018 hPa | 0 mm | 2.68 m/s, 285° | - | - |
| 1778042913 | 3.89° C | 61% | 1018 hPa | 0 mm | 1.79 m/s, 231° | - | - |
| 1778042614 | 3.89° C | 61% | 1018 hPa | 0 mm | 2.24 m/s, 179° | - | - |
| 1778042314 | 3.89° C | 61% | 1017.9 hPa | 0 mm | 2.24 m/s, 218° | - | - |
| 1778042015 | 3.89° C | 61% | 1017.9 hPa | 0 mm | 1.79 m/s, 207° | - | - |
| 1778041715 | 3.89° C | 61% | 1017.9 hPa | 0 mm | 1.79 m/s, 205° | - | - |
* Rain latest hour (hover to see other rain measurements)
** Current wind speed in m/s (hover to see current wind gust speed)